Weather History for Philip, SD

Change the Weather History Date:

Sunday, December 9, 2012

  Actual Average Record
Temperature  
Mean Temperature 4 °F 24 °F  
Max Temperature 13 °F 37 °F 71 °F (1957)
Min Temperature -5 °F 12 °F -18 °F (1977)
Degree Days  
Heating Degree Days 61 41  
Month to date heating degree days 268 357  
Since 1 July heating degree days 1741 1992  
Cooling Degree Days 0 0  
Month to date cooling degree days 0 0  
Year to date cooling degree days 1202 818  
Moisture  
Dew Point 2 °F    
Average Humidity 80    
Maximum Humidity 92    
Minimum Humidity 67    
Precipitation  
Precipitation 0.02 in 0.01 in 0.05 in (1966)
Month to date precipitation 0.14 0.14  
Year to date precipitation 7.09 17.06  
Sea Level Pressure  
Sea Level Pressure 30.27 in    
Wind  
Wind Speed 17 mph (NW)    
Max Wind Speed 39 mph    
Max Gust Speed 47 mph    
Visibility 5 miles    
Events Fog , Snow    
T = Trace of Precipitation, MM = Missing Value Source: NWS Daily Summary

Daily Weather History Graph

Daily Weather History Graph

Search for Another Location

Airport:

Trip Planner

Search our weather history database for the weather conditions in past years. The results will help you decide how hot, cold, wet, or windy it might be!

Date:

Astronomy

Dec. 09, 2012 Rise Set
Actual Time 7:09 AM MST 4:08 PM MST
Civil Twilight 6:37 AM MST 4:40 PM MST
Nautical Twilight 6:00 AM MST 5:17 PM MST
Astronomical Twilight 5:25 AM MST 5:52 PM MST
Moon 2:38 AM MST (12/9) 1:21 PM MST (12/9)
Length of Visible Light 10h 03m
Length of Day
8h 58m
Waning Crescent, 18% of the Moon is Illuminated
Dec 9
Waning Crescent
Dec 13
New
Dec 19
First Quarter
Dec 28
Full
Jan 4
Last Quarter

Hourly Weather History & Observations

Time (MST) Temp. Windchill Dew Point Humidity Pressure Visibility Wind Dir Wind Speed Gust Speed Precip Events Conditions
12:19 AM 12.2 °F -9.9 °F 8.6 °F 85% 29.94 in 1.0 mi NW 32.2 mph 42.6 mph 0.00 in Snow Light Snow
12:31 AM 12.2 °F -10.5 °F 8.6 °F 85% 29.95 in 0.8 mi NNW 34.5 mph 47.2 mph 0.00 in Snow Light Snow
12:55 AM 12.0 °F -11.6 °F 8.1 °F 84% 30.04 in 0.5 mi NNW 38.0 mph 46.0 mph 0.00 in Fog , Snow Snow
1:02 AM 12.2 °F -10.2 °F 8.6 °F 85% 29.96 in 0.5 mi NW 33.4 mph 46.0 mph 0.00 in Fog , Snow Snow
1:55 AM 10.0 °F -13.7 °F 7.0 °F 87% 30.09 in 0.5 mi NNW 35.7 mph 46.0 mph 0.00 in Fog , Snow Light Snow
2:51 AM 8.6 °F -15.4 °F 5.0 °F 85% 30.03 in 1.0 mi NNW 34.5 mph 43.7 mph 0.02 in Snow Light Snow
2:55 AM 9.0 °F -14.6 °F 5.0 °F 84% 30.12 in 1.0 mi NNW 33.4 mph 43.7 mph 0.02 in Snow Light Snow
3:25 AM 8.6 °F -13.8 °F 5.0 °F 85% 30.06 in 1.8 mi NNW 28.8 mph 41.4 mph 0.00 in Snow Light Snow
3:55 AM 9.0 °F -13.7 °F 5.0 °F 84% 30.17 in 1.8 mi NNW 29.9 mph 42.6 mph 0.00 in Snow Light Snow
4:31 AM 8.6 °F -14.1 °F 5.0 °F 85% 30.10 in 2.0 mi NNW 29.9 mph 40.3 mph 0.00 in Snow Light Snow
4:55 AM 9.0 °F -14.0 °F 3.9 °F 80% 30.22 in 2.0 mi NNW 31.1 mph 43.7 mph 0.00 in Snow Light Snow
5:55 AM 9.0 °F -13.0 °F 3.9 °F 80% 30.27 in 2.5 mi NNW 27.6 mph 38.0 mph 0.00 in Snow Light Snow
6:44 AM 8.6 °F -14.5 °F 3.2 °F 79% 30.21 in 3.0 mi NNW 31.1 mph 36.8 mph 0.00 in Snow Light Snow
6:55 AM 8.1 °F -14.5 °F 3.9 °F 83% 30.33 in 3.0 mi NNW 28.8 mph 38.0 mph 0.00 in Snow Light Snow
7:22 AM 8.6 °F -12.7 °F 3.2 °F 79% 30.24 in 1.8 mi NNW 25.3 mph 35.7 mph 0.00 in Snow Light Snow
7:50 AM 8.6 °F -11.9 °F 3.2 °F 79% 30.27 in 1.5 mi NNW 23.0 mph 33.4 mph 0.00 in Snow Light Snow
7:55 AM 8.1 °F -13.0 °F 3.9 °F 83% 30.37 in 1.5 mi NW 24.2 mph 34.5 mph 0.00 in Snow Light Snow
8:39 AM 8.6 °F -11.4 °F 3.2 °F 79% 30.30 in 2.5 mi NNW 21.9 mph 32.2 mph 0.00 in Snow Light Snow
8:55 AM 8.1 °F -13.8 °F 3.0 °F 80% 30.42 in 2.0 mi NNW 26.5 mph 32.2 mph 0.00 in Snow Light Snow
9:08 AM 8.6 °F -11.4 °F 3.2 °F 79% 30.32 in 3.0 mi NNW 21.9 mph 32.2 mph 0.00 in Snow Light Snow
9:55 AM 8.1 °F -12.6 °F 1.9 °F 76% 30.45 in 10.0 mi NNW 23.0 mph 33.4 mph 0.00 in   Overcast
10:55 AM 8.1 °F -11.7 °F 1.9 °F 76% 30.45 in 10.0 mi NNW 20.7 mph 29.9 mph N/A   Overcast
11:51 AM 9.0 °F -10.0 °F 1.9 °F 73% 30.46 in 10.0 mi NW 19.6 mph 26.5 mph N/A   Overcast
11:59 AM 8.6 °F -10.5 °F 1.4 °F 73% 30.33 in 10.0 mi NW 19.6 mph - N/A   Overcast
12:55 PM 10.9 °F -7.0 °F 3.0 °F 70% 30.43 in 10.0 mi NW 18.4 mph 27.6 mph N/A   Mostly Cloudy
1:55 PM 10.9 °F -5.4 °F 3.0 °F 70% 30.44 in 10.0 mi NW 15.0 mph - N/A   Clear
2:55 PM 12.0 °F -0.4 °F 3.0 °F 67% 30.44 in 10.0 mi NW 9.2 mph - N/A   Clear
3:55 PM 9.0 °F -2.2 °F 1.9 °F 73% 30.44 in 10.0 mi WNW 6.9 mph - N/A   Clear
4:55 PM 3.9 °F -8.2 °F -0.0 °F 84% 30.43 in 10.0 mi WNW 6.9 mph - N/A   Clear
5:55 PM 3.0 °F -10.5 °F -0.9 °F 84% 30.43 in 10.0 mi WNW 8.1 mph - N/A   Clear
6:55 PM 1.0 °F -10.3 °F -2.9 °F 83% 30.40 in 10.0 mi West 5.8 mph - N/A   Clear
7:55 PM 1.0 °F -10.3 °F -2.9 °F 83% 30.36 in 10.0 mi West 5.8 mph - N/A   Clear
8:55 PM -0.9 °F - -5.1 °F 83% 30.35 in 10.0 mi Calm Calm - N/A   Clear
9:55 PM -2.9 °F - -6.0 °F 87% 30.30 in 10.0 mi Calm Calm - N/A   Clear
10:55 PM -0.9 °F - -6.0 °F 79% 30.26 in 10.0 mi Calm Calm - N/A   Clear
11:55 PM -4.0 °F -12.4 °F -8.0 °F 83% 30.22 in 10.0 mi East 3.5 mph - N/A   Clear